DW0417 Weather Reports


Display with metric or nautical units.
time (UTC)temp
F
wind
direction
speed
MPH
gust
MPH
rain 1hr
in
rain 24hr
in
rain mn
in
humidity
%
barometer
mb
20260505021558 52 179 0.0 2.0 0.00 0.00 0.00 74 1009.5
20260505020557 52 178 1.0 4.0 0.00 0.00 0.00 74 1009.4
20260505020031 52 186 2.0 8.0 0.00 0.00 0.00 74 1009.5
20260505014556 52 165 5.0 10.0 0.00 0.00 0.00 73 1009.4
20260505013557 53 194 6.0 11.0 0.00 0.00 0.00 70 1009.2
20260505013035 53 157 6.0 13.0 0.00 0.00 0.00 68 1009.2
20260505011555 54 167 7.0 14.0 0.00 0.00 0.00 66 1009.3
20260505010556 56 214 8.0 15.0 0.00 0.00 0.00 63 1009.0
20260505005551 58 175 4.0 16.0 0.00 0.00 0.00 58 1008.9
20260505004551 58 196 2.0 6.0 0.00 0.00 0.00 61 1008.8
20260505003549 58 186 1.0 4.0 0.00 0.00 0.00 60 1008.6
20260505002550 58 167 3.0 6.0 0.00 0.00 0.00 61 1008.6
20260505001549 58 127 2.0 6.0 0.00 0.00 0.00 63 1008.7
20260505001041 58 148 2.0 5.0 0.00 0.00 0.00 63 1008.6
20260504235549 57 141 3.0 5.0 0.00 0.00 0.00 64 1008.3
20260504234549 58 198 2.0 7.0 0.00 0.00 0.00 62 1008.6
20260504233549 58 213 1.0 5.0 0.00 0.00 0.00 61 1008.5
20260504232544 58 202 1.0 5.0 0.00 0.00 0.00 62 1008.3
20260504231543 57 186 2.0 3.0 0.00 0.00 0.00 65 1008.2
20260504230544 57 55 4.0 6.0 0.00 0.00 0.00 63 1008.3
20260504225541 58 113 8.0 15.0 0.00 0.00 0.00 57 1008.3
20260504224541 61 110 4.0 7.0 0.00 0.00 0.00 46 1008.3
20260504223541 61 94 5.0 10.0 0.00 0.00 0.00 48 1008.6
20260504222541 61 103 6.0 10.0 0.00 0.00 0.00 48 1008.6
20260504221542 61 111 3.0 7.0 0.00 0.00 0.00 45 1008.1
20260504221025 62 193 2.0 5.0 0.00 0.00 0.00 44 1007.4
20260504220026 62 157 3.0 9.0 0.00 0.00 0.00 45 1007.0
20260504214536 62 210 5.0 12.0 0.00 0.00 0.00 46 1006.9
20260504213537 62 217 6.0 19.0 0.00 0.00 0.00 47 1007.0
20260504212536 62 226 9.0 22.0 0.00 0.00 0.00 45 1007.3
20260504212018 63 199 11.0 21.0 0.00 0.00 0.00 43 1007.3
20260504210536 63 174 11.0 23.0 0.00 0.00 0.00 43 1007.2
20260504205536 62 167 5.0 19.0 0.00 0.00 0.00 46 1007.5
20260504204535 65 222 7.0 19.0 0.00 0.00 0.00 37 1007.9
20260504203535 68 231 6.0 13.0 0.00 0.00 0.00 32 1007.7
20260504202533 68 293 11.0 21.0 0.00 0.00 0.00 34 1006.7
20260504201533 67 359 15.0 26.0 0.00 0.00 0.00 33 1006.8
20260504201022 69 347 13.0 22.0 0.00 0.00 0.00 30 1006.9
20260504195533 70 81 15.0 24.0 0.00 0.00 0.00 28 1006.7
20260504194533 71 88 8.0 17.0 0.00 0.00 0.00 24 1006.5
20260504194015 72 91 4.0 9.0 0.00 0.00 0.00 24 1006.5
20260504192533 72 156 3.0 8.0 0.00 0.00 0.00 22 1006.3
20260504192017 71 195 4.0 10.0 0.00 0.00 0.00 21 1006.2
20260504190533 71 156 5.0 11.0 0.00 0.00 0.00 23 1006.2
20260504185533 71 96 5.0 10.0 0.00 0.00 0.00 24 1006.3
20260504184532 71 90 8.0 16.0 0.00 0.00 0.00 25 1006.5
20260504183534 72 176 7.0 14.0 0.00 0.00 0.00 26 1006.7
20260504182533 71 126 7.0 14.0 0.00 0.00 0.00 27 1006.9
20260504181532 70 103 10.0 18.0 0.00 0.00 0.00 27 1006.9
20260504180533 70 97 11.0 20.0 0.00 0.00 0.00 28 1007.2
20260504180011 69 103 12.0 20.0 0.00 0.00 0.00 30 1007.4
20260504174531 69 76 11.0 20.0 0.00 0.00 0.00 29 1007.6
20260504173532 68 86 11.0 21.0 0.00 0.00 0.00 31 1007.7
20260504172529 67 91 9.0 20.0 0.00 0.00 0.00 32 1008.0
20260504171529 66 98 9.0 18.0 0.00 0.00 0.00 32 1008.1
20260504171004 66 139 9.0 20.0 0.00 0.00 0.00 32 1008.2
20260504150528 63 107 3.0 7.0 0.00 0.00 0.00 33 1008.5
20260504110518 43 85 0.0 3.0 0.00 0.00 0.00 63 1008.3
20260504100519 45 309 1.0 3.0 0.00 0.00 0.00 53 1008.6
20260504081514 45 165 0.0 0.0 0.00 0.00 0.00 54 1009.4
20260504080514 46 165 0.0 0.0 0.00 0.00 0.00 55 1009.4
20260504050505 61 167 5.0 13.0 0.00 0.00 0.00 31 1010.2
20260504045505 61 186 3.0 7.0 0.00 0.00 0.00 33 1010.0
20260504044506 62 97 4.0 6.0 0.00 0.00 0.00 31 1009.6
20260504043507 63 110 3.0 6.0 0.00 0.00 0.00 31 1009.6
20260504042506 63 79 4.0 7.0 0.00 0.00 0.00 30 1009.7
20260504041506 63 94 4.0 6.0 0.00 0.00 0.00 30 1009.9
20260504040507 64 77 4.0 9.0 0.00 0.00 0.00 30 1010.0
20260504035507 64 96 5.0 11.0 0.00 0.00 0.00 30 1010.1
20260504034957 65 86 6.0 12.0 0.00 0.00 0.00 30 1010.0
20260504033949 65 72 5.0 10.0 0.00 0.00 0.00 30 1010.1
20260504032947 65 76 5.0 10.0 0.00 0.00 0.00 30 1010.1
20260504031503 65 81 6.0 11.0 0.00 0.00 0.00 29 1010.0
20260504030504 66 73 6.0 12.0 0.00 0.00 0.00 29 1010.0
20260504025503 66 82 6.0 13.0 0.00 0.00 0.00 28 1010.0
20260504024504 66 79 9.0 16.0 0.00 0.00 0.00 27 1010.0
20260504023504 67 75 6.0 15.0 0.00 0.00 0.00 27 1009.9